QPF
0.05 0.06 0.05 0.06 0.08 0.08 0.07 0.09 0.08 0.06 0.06 0.05 0.06 0.06 0.04 0.05 0.06 0.06 0.05 0.04 0.01 0.01 0.01 0.01 0.01 0.01 0.01 0.01 0.01 0.01 0.01 0.02 0.04 0.04 0.04 0.04 0.05 0.05
0.04 0.05 0.05 0.05 0.05 0.06 0.06 0.08 0.10 0.07 0.07 0.06 0.06 0.07 0.06 0.05 0.07 0.08 0.06 0.06 0.04 0.02 0.01 0.01 0.01 0.01 0.01 0.01 0.01 0.01 0.01 0.01 0.01 0.02 0.02 0.02 0.02 0.02
0.06 0.04 0.05 0.06 0.05 0.04 0.04 0.06 0.08 0.07 0.05 0.04 0.05 0.06 0.08 0.08 0.09 0.09 0.07 0.06 0.05 0.04 0.03 0.02 0.02 0.02 0.02 0.01 0.01 0.01 0.01 0.01 0.02 0.01 0.01 0.02 0.02 0.02
0.08 0.07 0.05 0.05 0.04 0.04 0.05 0.04 0.06 0.06 0.05 0.04 0.04 0.04 0.05 0.06 0.06 0.06 0.05 0.05 0.04 0.04 0.04 0.03 0.03 0.02 0.02 0.01 0.01 0.01 0.02 0.02 0.02 0.02 0.01 0.01 0.02 0.03
0.09 0.08 0.06 0.05 0.05 0.04 0.05 0.06 0.06 0.06 0.06 0.05 0.03 0.04 0.04 0.04 0.05 0.05 0.05 0.05 0.05 0.05 0.04 0.03 0.03 0.02 0.02 0.02 0.03 0.03 0.03 0.02 0.01 0.02 0.02 0.02 0.02 0.02
0.07 0.08 0.07 0.06 0.05 0.05 0.04 0.04 0.06 0.07 0.07 0.05 0.04 0.05 0.05 0.05 0.05 0.05 0.06 0.05 0.05 0.05 0.03 0.02 0.02 0.02 0.02 0.02 0.03 0.02 0.01 0.01 0.01 0.01 0.01 0.01 0.03 0.03
0.04 0.04 0.05 0.06 0.06 0.06 0.04 0.04 0.05 0.05 0.06 0.05 0.06 0.06 0.07 0.06 0.04 0.04 0.06 0.07 0.06 0.07 0.05 0.03 0.02 0.02 0.02 0.02 0.02 0.01 0.01 0.01 0.01 0.01 0.02 0.02 0.02 0.03
0.03 0.04 0.04 0.05 0.06 0.06 0.06 0.04 0.04 0.04 0.04 0.04 0.05 0.04 0.05 0.04 0.02 0.03 0.05 0.07 0.07 0.05 0.04 0.04 0.04 0.04 0.03 0.02 0.02 0.02 0.01 0.01 0.01 0.01 0.01 0.01 0.01 0.01
0.03 0.04 0.05 0.06 0.07 0.07 0.08 0.08 0.06 0.04 0.04 0.04 0.03 0.03 0.03 0.03 0.03 0.04 0.05 0.05 0.04 0.02 0.03 0.05 0.05 0.04 0.04 0.03 0.03 0.02 0.01 0.01 0.01 0.01 0.01 0.01 0.01 0.01
0.02 0.04 0.05 0.06 0.07 0.08 0.08 0.07 0.06 0.05 0.05 0.04 0.03 0.02 0.02 0.03 0.03 0.03 0.04 0.04 0.02 0.01 0.01 0.02 0.02 0.03 0.02 0.02 0.02 0.02 0.02 0.02 0.01 0.01 0.01 0.01 0.01 0.01
0.02 0.02 0.03 0.03 0.05 0.05 0.04 0.03 0.03 0.03 0.04 0.03 0.02 0.01 0.02 0.03 0.03 0.03 0.04 0.03 0.01 0.01 0.01 0.01 0.00 0.01 0.01 0.01 0.01 0.02 0.02 0.02 0.02 0.02 0.02 0.02 0.01 0.02
0.01 0.01 0.02 0.02 0.03 0.04 0.03 0.02 0.02 0.02 0.03 0.02 0.02 0.02 0.02 0.02 0.02 0.02 0.03 0.02 0.01 0.01 0.00 0.01 0.01 0.01 0.01 0.01 0.01 0.01 0.01 0.01 0.02 0.02 0.03 0.04 0.04 0.02
0.01 0.01 0.01 0.01 0.01 0.02 0.02 0.01 0.01 0.01 0.02 0.03 0.03 0.03 0.03 0.02 0.02 0.03 0.02 0.01 0.01 0.01 0.01 0.02 0.03 0.03 0.02 0.02 0.02 0.03 0.03 0.02 0.02 0.02 0.02 0.03 0.04 0.03
0.01 0.00 0.00 0.01 0.01 0.01 0.01 0.01 0.01 0.01 0.02 0.03 0.03 0.02 0.02 0.01 0.01 0.01 0.01 0.02 0.02 0.01 0.01 0.02 0.02 0.02 0.02 0.02 0.02 0.02 0.02 0.02 0.02 0.02 0.02 0.04 0.04 0.05
0.02 0.01 0.01 0.01 0.00 0.01 0.01 0.01 0.01 0.00 0.01 0.02 0.02 0.01 0.01 0.01 0.01 0.01 0.01 0.02 0.03 0.02 0.02 0.03 0.02 0.02 0.03 0.02 0.01 0.01 0.01 0.01 0.01 0.02 0.02 0.02 0.03 0.04
0.03 0.02 0.01 0.01 0.00 0.01 0.01 0.01 0.01 0.00 0.00 0.01 0.01 0.01 0.01 0.01 0.01 0.01 0.01 0.01 0.01 0.01 0.01 0.02 0.03 0.04 0.03 0.02 0.02 0.02 0.01 0.02 0.02 0.03 0.02 0.02 0.02 0.03
0.01 0.01 0.00 0.00 0.01 0.01 0.01 0.01 0.01 0.01 0.01 0.01 0.01 0.01 0.01 0.01 0.01 0.01 0.01 0.01 0.01 0.01 0.01 0.01 0.02 0.03 0.04 0.03 0.03 0.02 0.02 0.02 0.03 0.03 0.03 0.02 0.02 0.02
0.01 0.01 0.01 0.00 0.01 0.01 0.01 0.01 0.01 0.01 0.01 0.01 0.01 0.01 0.01 0.01 0.01 0.01 0.01 0.02 0.01 0.01 0.01 0.01 0.02 0.04 0.04 0.03 0.02 0.02 0.02 0.02 0.03 0.04 0.04 0.04 0.03 0.03
0.02 0.02 0.02 0.02 0.02 0.02 0.01 0.01 0.01 0.01 0.00 0.00 0.00 0.01 0.01 0.01 0.01 0.01 0.01 0.02 0.02 0.02 0.02 0.02 0.02 0.03 0.03 0.02 0.02 0.01 0.02 0.03 0.03 0.03 0.04 0.05 0.04 0.03
0.03 0.03 0.03 0.03 0.03 0.03 0.02 0.01 0.01 0.01 0.01 0.01 0.01 0.01 0.01 0.01 0.01 0.01 0.02 0.02 0.03 0.03 0.03 0.04 0.04 0.03 0.02 0.02 0.02 0.01 0.02 0.02 0.03 0.03 0.03 0.03 0.03 0.03
0.05 0.05 0.05 0.04 0.04 0.03 0.03 0.02 0.02 0.02 0.02 0.03 0.02 0.02 0.02 0.02 0.02 0.02 0.02 0.03 0.04 0.05 0.06 0.07 0.06 0.04 0.04 0.04 0.04 0.02 0.02 0.03 0.03 0.03 0.04 0.03 0.02 0.02
0.04 0.05 0.04 0.04 0.04 0.03 0.02 0.02 0.03 0.03 0.03 0.03 0.03 0.03 0.03 0.04 0.04 0.03 0.02 0.03 0.07 0.08 0.06 0.04 0.04 0.04 0.04 0.04 0.04 0.03 0.02 0.02 0.02 0.02 0.03 0.03 0.04 0.02
0.05 0.06 0.06 0.05 0.05 0.04 0.03 0.02 0.03 0.03 0.03 0.03 0.03 0.03 0.03 0.03 0.03 0.04 0.05 0.05 0.06 0.05 0.04 0.03 0.03 0.03 0.04 0.05 0.05 0.04 0.04 0.03 0.02 0.01 0.01 0.02 0.02 0.02
MSLP
1011.50 1012.04 1012.69 1013.40 1014.15 1014.88 1015.58 1016.24 1016.84 1017.41 1017.94 1018.44 1018.93 1019.39 1019.81 1020.19 1020.51 1020.78 1021.00 1021.18 1021.35 1021.51 1021.68 1021.87 1022.06 1022.24 1022.39 1022.49 1022.54 1022.52 1022.45 1022.35 1022.23 1022.13 1022.04 1021.99 1021.97 1021.96
1011.33 1011.81 1012.38 1013.02 1013.70 1014.40 1015.07 1015.72 1016.34 1016.94 1017.52 1018.08 1018.61 1019.12 1019.58 1019.99 1020.33 1020.61 1020.82 1020.99 1021.14 1021.29 1021.44 1021.61 1021.80 1021.98 1022.15 1022.28 1022.36 1022.38 1022.36 1022.30 1022.22 1022.15 1022.09 1022.05 1022.02 1022.01
1011.21 1011.60 1012.10 1012.68 1013.30 1013.94 1014.60 1015.24 1015.87 1016.50 1017.11 1017.72 1018.30 1018.86 1019.36 1019.81 1020.17 1020.47 1020.69 1020.86 1021.00 1021.12 1021.25 1021.39 1021.55 1021.71 1021.85 1021.98 1022.06 1022.10 1022.11 1022.09 1022.05 1022.02 1021.99 1021.98 1021.97 1021.98
1011.13 1011.46 1011.89 1012.40 1012.97 1013.57 1014.19 1014.82 1015.46 1016.10 1016.74 1017.37 1017.99 1018.58 1019.13 1019.61 1020.01 1020.34 1020.58 1020.77 1020.90 1021.01 1021.10 1021.20 1021.30 1021.41 1021.50 1021.59 1021.64 1021.68 1021.69 1021.70 1021.70 1021.70 1021.72 1021.76 1021.80 1021.83
1011.12 1011.39 1011.76 1012.21 1012.73 1013.29 1013.88 1014.48 1015.10 1015.74 1016.37 1017.02 1017.65 1018.26 1018.83 1019.35 1019.79 1020.15 1020.44 1020.64 1020.79 1020.89 1020.95 1021.00 1021.04 1021.07 1021.09 1021.10 1021.11 1021.11 1021.12 1021.13 1021.16 1021.22 1021.29 1021.39 1021.48 1021.58
1011.18 1011.40 1011.72 1012.12 1012.59 1013.10 1013.65 1014.21 1014.79 1015.39 1015.99 1016.61 1017.23 1017.85 1018.43 1018.97 1019.45 1019.86 1020.18 1020.43 1020.59 1020.70 1020.74 1020.74 1020.71 1020.66 1020.60 1020.53 1020.47 1020.42 1020.40 1020.42 1020.48 1020.58 1020.72 1020.88 1021.05 1021.21
1011.31 1011.49 1011.77 1012.12 1012.54 1013.00 1013.48 1013.99 1014.50 1015.04 1015.58 1016.15 1016.73 1017.31 1017.89 1018.44 1018.95 1019.39 1019.77 1020.06 1020.26 1020.38 1020.41 1020.38 1020.30 1020.18 1020.03 1019.88 1019.75 1019.65 1019.61 1019.63 1019.71 1019.86 1020.06 1020.29 1020.53 1020.75
1011.49 1011.64 1011.88 1012.20 1012.56 1012.96 1013.38 1013.80 1014.23 1014.68 1015.14 1015.62 1016.13 1016.66 1017.21 1017.76 1018.28 1018.76 1019.18 1019.52 1019.76 1019.90 1019.95 1019.91 1019.79 1019.62 1019.41 1019.20 1019.01 1018.87 1018.81 1018.82 1018.92 1019.11 1019.35 1019.65 1019.95 1020.23
1011.69 1011.83 1012.05 1012.33 1012.64 1012.97 1013.31 1013.65 1013.98 1014.32 1014.68 1015.06 1015.49 1015.95 1016.45 1016.97 1017.50 1018.00 1018.45 1018.84 1019.12 1019.30 1019.37 1019.34 1019.21 1019.02 1018.78 1018.53 1018.31 1018.15 1018.06 1018.08 1018.19 1018.40 1018.68 1019.01 1019.35 1019.67
1011.88 1012.03 1012.23 1012.48 1012.75 1013.03 1013.29 1013.54 1013.77 1014.00 1014.26 1014.54 1014.87 1015.26 1015.70 1016.18 1016.69 1017.19 1017.66 1018.08 1018.40 1018.62 1018.73 1018.72 1018.61 1018.42 1018.19 1017.94 1017.71 1017.54 1017.45 1017.46 1017.58 1017.79 1018.07 1018.41 1018.76 1019.08
1012.03 1012.20 1012.41 1012.64 1012.88 1013.11 1013.30 1013.47 1013.62 1013.76 1013.92 1014.11 1014.35 1014.66 1015.04 1015.47 1015.95 1016.43 1016.91 1017.34 1017.68 1017.94 1018.08 1018.11 1018.04 1017.89 1017.68 1017.45 1017.24 1017.08 1016.99 1017.00 1017.10 1017.29 1017.55 1017.86 1018.18 1018.48
1012.10 1012.31 1012.54 1012.78 1013.01 1013.20 1013.35 1013.47 1013.55 1013.62 1013.71 1013.83 1014.00 1014.24 1014.56 1014.94 1015.36 1015.82 1016.27 1016.69 1017.04 1017.32 1017.49 1017.56 1017.54 1017.43 1017.27 1017.09 1016.91 1016.76 1016.68 1016.67 1016.74 1016.89 1017.10 1017.36 1017.62 1017.87
1012.08 1012.34 1012.61 1012.87 1013.10 1013.28 1013.41 1013.50 1013.55 1013.59 1013.63 1013.71 1013.83 1014.02 1014.28 1014.60 1014.97 1015.38 1015.78 1016.17 1016.51 1016.79 1016.98 1017.09 1017.10 1017.05 1016.95 1016.81 1016.67 1016.54 1016.46 1016.43 1016.46 1016.56 1016.70 1016.87 1017.06 1017.23
1011.94 1012.26 1012.58 1012.87 1013.11 1013.30 1013.44 1013.53 1013.58 1013.62 1013.65 1013.71 1013.81 1013.97 1014.18 1014.44 1014.76 1015.10 1015.45 1015.78 1016.09 1016.34 1016.54 1016.66 1016.72 1016.71 1016.65 1016.56 1016.46 1016.35 1016.27 1016.22 1016.20 1016.23 1016.29 1016.37 1016.47 1016.56
1011.66 1012.05 1012.41 1012.74 1013.02 1013.24 1013.40 1013.51 1013.59 1013.65 1013.70 1013.77 1013.86 1014.00 1014.18 1014.40 1014.65 1014.92 1015.20 1015.47 1015.72 1015.94 1016.11 1016.24 1016.32 1016.35 1016.33 1016.28 1016.21 1016.12 1016.04 1015.96 1015.90 1015.85 1015.83 1015.83 1015.84 1015.86
1011.25 1011.68 1012.09 1012.46 1012.77 1013.03 1013.23 1013.38 1013.50 1013.60 1013.69 1013.78 1013.89 1014.02 1014.18 1014.35 1014.55 1014.75 1014.96 1015.16 1015.34 1015.51 1015.66 1015.78 1015.86 1015.91 1015.92 1015.91 1015.86 1015.79 1015.70 1015.60 1015.49 1015.39 1015.30 1015.23 1015.17 1015.13
1010.71 1011.17 1011.60 1012.00 1012.34 1012.64 1012.88 1013.08 1013.25 1013.39 1013.52 1013.65 1013.78 1013.92 1014.06 1014.21 1014.35 1014.50 1014.64 1014.77 1014.90 1015.02 1015.13 1015.22 1015.30 1015.36 1015.40 1015.40 1015.37 1015.31 1015.22 1015.11 1014.98 1014.84 1014.70 1014.57 1014.47 1014.38
1010.06 1010.52 1010.96 1011.37 1011.73 1012.05 1012.33 1012.56 1012.77 1012.96 1013.14 1013.30 1013.46 1013.61 1013.75 1013.87 1013.99 1014.09 1014.18 1014.26 1014.34 1014.41 1014.49 1014.57 1014.64 1014.70 1014.75 1014.77 1014.76 1014.70 1014.62 1014.50 1014.35 1014.19 1014.03 1013.88 1013.75 1013.65
1009.35 1009.78 1010.20 1010.60 1010.97 1011.29 1011.58 1011.84 1012.08 1012.30 1012.51 1012.71 1012.89 1013.06 1013.20 1013.33 1013.43 1013.50 1013.57 1013.62 1013.67 1013.72 1013.78 1013.84 1013.91 1013.97 1014.02 1014.05 1014.04 1014.00 1013.92 1013.80 1013.66 1013.50 1013.33 1013.18 1013.05 1012.95
1008.64 1009.02 1009.40 1009.76 1010.10 1010.41 1010.70 1010.96 1011.21 1011.45 1011.68 1011.90 1012.10 1012.29 1012.45 1012.58 1012.69 1012.77 1012.83 1012.88 1012.93 1012.97 1013.03 1013.09 1013.15 1013.21 1013.26 1013.29 1013.29 1013.25 1013.18 1013.07 1012.94 1012.79 1012.63 1012.50 1012.38 1012.29
1008.01 1008.32 1008.63 1008.94 1009.23 1009.50 1009.76 1010.00 1010.24 1010.48 1010.71 1010.94 1011.16 1011.36 1011.55 1011.71 1011.84 1011.95 1012.03 1012.10 1012.17 1012.22 1012.29 1012.35 1012.42 1012.48 1012.53 1012.55 1012.55 1012.51 1012.44 1012.34 1012.22 1012.08 1011.95 1011.84 1011.75 1011.68
1007.53 1007.74 1007.98 1008.21 1008.43 1008.64 1008.85 1009.06 1009.27 1009.48 1009.71 1009.94 1010.17 1010.39 1010.60 1010.79 1010.96 1011.11 1011.23 1011.34 1011.44 1011.52 1011.60 1011.68 1011.75 1011.80 1011.84 1011.85 1011.84 1011.79 1011.72 1011.62 1011.51 1011.40 1011.29 1011.21 1011.14 1011.11
1007.26 1007.38 1007.52 1007.66 1007.80 1007.95 1008.09 1008.24 1008.41 1008.59 1008.79 1009.02 1009.25 1009.49 1009.72 1009.94 1010.15 1010.34 1010.50 1010.65 1010.78 1010.89 1010.98 1011.07 1011.13 1011.18 1011.20 1011.19 1011.15 1011.09 1011.01 1010.91 1010.81 1010.71 1010.63 1010.58 1010.56 1010.56
Thickness
5705 5705 5704 5704 5703 5703 5701 5699 5693 5687 5687 5694 5697 5700 5701 5700 5699 5698 5697 5697 5696 5696 5695 5694 5693 5693 5692 5692 5692 5692 5691 5691 5690 5689 5689 5688 5688 5688
5701 5701 5700 5700 5701 5700 5699 5698 5696 5691 5686 5690 5693 5696 5697 5696 5695 5694 5693 5693 5693 5693 5692 5692 5691 5690 5690 5690 5689 5689 5688 5687 5686 5686 5685 5685 5685 5684
5696 5697 5696 5697 5696 5695 5695 5694 5693 5691 5685 5687 5689 5692 5692 5691 5691 5690 5689 5689 5689 5689 5689 5688 5688 5688 5687 5686 5686 5685 5685 5684 5683 5683 5682 5682 5681 5681
5691 5692 5691 5692 5691 5691 5690 5690 5689 5688 5684 5682 5683 5685 5686 5686 5686 5685 5685 5685 5685 5685 5685 5685 5685 5684 5684 5683 5683 5682 5682 5681 5680 5679 5679 5678 5678 5677
5687 5687 5687 5686 5686 5686 5685 5685 5684 5685 5682 5679 5678 5680 5680 5681 5680 5680 5680 5679 5680 5680 5680 5680 5680 5680 5680 5680 5679 5679 5678 5678 5677 5676 5675 5675 5674 5673
5682 5683 5683 5683 5682 5681 5681 5680 5680 5678 5677 5675 5674 5674 5674 5675 5674 5672 5671 5672 5673 5675 5675 5675 5675 5676 5676 5676 5676 5675 5675 5674 5673 5672 5672 5671 5670 5670
5677 5678 5679 5680 5680 5679 5678 5677 5676 5673 5671 5670 5668 5668 5667 5667 5667 5667 5665 5665 5666 5668 5668 5669 5670 5670 5671 5671 5671 5672 5671 5671 5670 5669 5668 5667 5666 5666
5671 5672 5673 5674 5675 5675 5675 5674 5673 5670 5667 5665 5664 5663 5663 5664 5663 5662 5660 5658 5657 5662 5661 5663 5664 5665 5667 5667 5668 5668 5668 5667 5667 5666 5665 5664 5663 5662
5665 5666 5667 5669 5669 5669 5669 5669 5669 5668 5667 5665 5662 5661 5661 5662 5660 5658 5656 5655 5655 5658 5656 5656 5659 5659 5663 5663 5664 5664 5664 5663 5662 5662 5661 5660 5659 5658
5661 5661 5661 5662 5663 5663 5662 5662 5662 5663 5663 5663 5663 5662 5662 5661 5659 5657 5655 5652 5653 5654 5654 5650 5653 5654 5658 5659 5660 5660 5660 5659 5658 5657 5657 5656 5655 5654
5655 5656 5657 5656 5657 5657 5656 5655 5655 5656 5658 5659 5659 5659 5659 5657 5656 5652 5648 5646 5644 5647 5649 5647 5648 5648 5651 5653 5655 5655 5655 5654 5653 5653 5652 5651 5650 5649
5649 5650 5652 5652 5651 5650 5649 5648 5647 5649 5651 5652 5653 5653 5652 5652 5651 5649 5646 5642 5639 5639 5644 5642 5642 5642 5641 5646 5648 5649 5649 5649 5648 5648 5647 5646 5644 5642
5642 5643 5645 5646 5646 5645 5644 5643 5644 5645 5645 5645 5645 5645 5645 5645 5644 5644 5643 5641 5637 5636 5640 5638 5636 5635 5635 5636 5639 5642 5642 5642 5642 5642 5641 5641 5639 5637
5636 5637 5639 5640 5640 5639 5639 5639 5639 5639 5638 5638 5638 5638 5638 5638 5639 5638 5638 5637 5637 5636 5636 5635 5632 5631 5629 5628 5630 5633 5635 5636 5636 5636 5636 5636 5634 5633
5631 5632 5632 5633 5633 5633 5633 5633 5633 5632 5631 5630 5631 5632 5633 5633 5633 5632 5632 5631 5630 5630 5630 5630 5629 5628 5626 5624 5624 5626 5627 5629 5630 5630 5630 5629 5629 5628
5624 5624 5625 5625 5626 5626 5626 5626 5626 5626 5625 5625 5625 5626 5627 5626 5625 5624 5623 5622 5621 5622 5625 5625 5625 5624 5621 5621 5620 5620 5621 5621 5624 5624 5624 5623 5623 5622
5616 5616 5616 5617 5617 5618 5618 5619 5619 5619 5618 5619 5619 5619 5619 5619 5618 5618 5616 5615 5613 5614 5616 5618 5619 5619 5618 5617 5615 5616 5616 5616 5617 5618 5616 5616 5617 5616
5608 5608 5609 5609 5610 5610 5611 5611 5612 5612 5612 5613 5613 5613 5612 5612 5611 5611 5609 5608 5608 5609 5610 5610 5610 5609 5609 5610 5611 5611 5610 5610 5611 5611 5610 5609 5609 5610
5601 5602 5602 5603 5604 5605 5606 5606 5607 5608 5608 5608 5607 5607 5607 5606 5605 5604 5604 5602 5603 5604 5605 5605 5603 5601 5599 5601 5605 5605 5604 5604 5604 5603 5603 5602 5602 5602
5595 5595 5596 5597 5598 5599 5600 5600 5601 5601 5601 5601 5601 5601 5600 5600 5599 5599 5599 5598 5599 5599 5599 5599 5599 5598 5597 5597 5597 5597 5598 5598 5597 5596 5595 5594 5593 5593
5590 5590 5591 5592 5592 5593 5593 5594 5594 5594 5594 5594 5594 5594 5594 5593 5594 5594 5594 5595 5594 5593 5594 5595 5597 5597 5595 5592 5590 5590 5590 5591 5592 5589 5588 5585 5584 5583
5584 5585 5585 5586 5586 5587 5587 5587 5587 5587 5587 5587 5587 5587 5587 5587 5588 5589 5589 5589 5589 5589 5590 5591 5591 5590 5587 5586 5584 5583 5582 5582 5582 5582 5580 5579 5576 5575
5579 5580 5580 5580 5580 5580 5581 5581 5580 5580 5580 5580 5580 5580 5581 5581 5582 5583 5584 5584 5583 5584 5584 5583 5583 5581 5580 5579 5577 5575 5574 5573 5572 5570 5569 5570 5570 5569